DW1521 Weather Reports


time (UTC)temp
C
wind
direction
speed
KPH
gust
KPH
rain 1hr
cm
rain 24hr
cm
rain mn
cm
humidity
%
barometer
mb
20260508012836 8 306 0.0 3.2 0.00 0.00 0.00 71 1016.6
20260508011836 8 59 0.0 1.6 0.00 0.00 0.00 70 1016.8
20260508004836 9 73 1.6 3.2 0.00 0.00 0.00 70 1016.6
20260508004336 9 72 1.6 3.2 0.00 0.00 0.00 70 1016.6
20260508001836 10 315 0.0 0.0 0.00 0.00 0.00 69 1016.7
20260508001336 10 318 0.0 0.0 0.00 0.00 0.00 69 1016.7
20260508000836 10 309 0.0 1.6 0.00 0.00 0.00 69 1016.5
20260507235336 10 332 0.0 1.6 0.00 0.00 0.00 69 1016.4
20260507234336 10 2 1.6 1.6 0.00 0.00 0.00 69 1016.5
20260507233336 10 93 0.0 1.6 0.00 0.00 0.00 68 1016.6
20260507232336 10 97 1.6 3.2 0.00 0.00 0.00 68 1016.7
20260507230836 11 352 0.0 1.6 0.00 0.00 0.00 68 1016.6
20260507225836 11 43 0.0 1.6 0.00 0.00 0.00 68 1016.5
20260507224836 11 343 1.6 3.2 0.00 0.00 0.00 68 1016.4
20260507223835 11 274 0.0 3.2 0.00 0.00 0.00 67 1016.5
20260507222336 11 56 1.6 3.2 0.00 0.00 0.00 67 1016.2
20260507221836 11 49 0.0 3.2 0.00 0.00 0.00 67 1016.3
20260507215836 12 304 0.0 3.2 0.00 0.00 0.00 67 1015.8
20260507215336 12 302 1.6 3.2 0.00 0.00 0.00 67 1016.1
20260507214836 12 323 1.6 3.2 0.00 0.00 0.00 66 1016.1
20260507213836 12 229 3.2 8.0 0.00 0.00 0.00 66 1015.9
20260507212836 12 15 0.0 1.6 0.00 0.00 0.00 66 1015.6
20260507212336 12 331 0.0 1.6 0.00 0.00 0.00 66 1015.7
20260507210836 13 330 3.2 4.8 0.00 0.00 0.00 65 1015.7
20260507204336 13 267 0.0 1.6 0.00 0.00 0.00 64 1015.4
20260507203336 13 240 0.0 0.0 0.00 0.00 0.00 64 1015.3
20260507202836 13 240 1.6 3.2 0.00 0.00 0.00 63 1015.4
20260507202336 14 264 1.6 3.2 0.00 0.00 0.00 63 1015.3
20260507201836 14 302 1.6 1.6 0.00 0.00 0.00 63 1015.5
20260507201336 14 234 1.6 1.6 0.00 0.00 0.00 63 1015.3
20260507200836 14 204 1.6 1.6 0.00 0.00 0.00 62 1015.6
20260507200336 14 206 1.6 3.2 0.00 0.00 0.00 62 1015.3
20260507195836 15 218 1.6 3.2 0.00 0.00 0.00 62 1015.4
20260507195336 15 267 0.0 1.6 0.00 0.00 0.00 62 1015.6
20260507193835 15 60 0.0 1.6 0.00 0.00 0.00 61 1015.3
20260507192836 15 60 1.6 4.8 0.00 0.00 0.00 61 1015.3
20260507192336 15 12 1.6 3.2 0.00 0.00 0.00 60 1015.3
20260507191836 15 359 0.0 1.6 0.00 0.00 0.00 60 1015.6
20260507190836 16 0 0.0 1.6 0.00 0.00 0.00 60 1015.4
20260507190335 16 0 0.0 1.6 0.00 0.00 0.00 60 1015.4
20260507185336 16 341 0.0 1.6 0.00 0.00 0.00 59 1015.3
20260507184336 16 324 1.6 3.2 0.00 0.00 0.00 59 1015.3
20260507183836 16 302 0.0 1.6 0.00 0.00 0.00 58 1015.2
20260507183336 16 301 1.6 1.6 0.00 0.00 0.00 58 1015.3
20260507182836 16 301 0.0 1.6 0.00 0.00 0.00 58 1015.2
20260507182336 16 319 0.0 1.6 0.00 0.00 0.00 58 1015.0
20260507180336 17 308 1.6 8.0 0.00 0.00 0.00 57 1014.8
20260507174336 18 267 1.6 3.2 0.00 0.00 0.00 55 1014.7
20260507172336 18 273 3.2 4.8 0.00 0.00 0.00 55 1014.8
20260507171836 18 275 3.2 4.8 0.00 0.00 0.00 54 1014.9
20260507170336 19 298 3.2 9.7 0.00 0.00 0.00 54 1014.5
20260507163336 20 313 8.0 11.3 0.00 0.00 0.00 53 1014.7
20260507162836 20 319 3.2 9.7 0.00 0.00 0.00 53 1014.8
20260507162335 20 274 4.8 9.7 0.00 0.00 0.00 52 1014.8
20260507161836 20 276 3.2 9.7 0.00 0.00 0.00 51 1014.9
20260507160836 20 289 3.2 9.7 0.00 0.00 0.00 51 1014.7
20260507155336 20 276 3.2 9.7 0.00 0.00 0.00 51 1015.1
20260507154835 20 266 3.2 4.8 0.00 0.00 0.00 50 1014.9
20260507154336 20 268 3.2 8.0 0.00 0.00 0.00 50 1015.0
20260507153336 20 314 3.2 9.7 0.00 0.00 0.00 51 1014.9
20260507152836 20 291 4.8 9.7 0.00 0.00 0.00 51 1015.0
20260507152335 20 283 3.2 8.0 0.00 0.00 0.00 51 1015.2
20260507151335 20 271 3.2 8.0 0.00 0.00 0.00 50 1015.2
20260507150335 20 276 3.2 8.0 0.00 0.00 0.00 50 1015.1
20260507145836 20 281 4.8 9.7 0.00 0.00 0.00 50 1015.6
20260507144836 20 294 3.2 9.7 0.00 0.00 0.00 50 1015.5
20260507144336 20 307 3.2 8.0 0.00 0.00 0.00 50 1015.5
20260507143336 20 295 3.2 4.8 0.00 0.00 0.00 49 1015.5
20260507142835 20 282 3.2 8.0 0.00 0.00 0.00 49 1015.6
20260507141336 20 309 4.8 11.3 0.00 0.00 0.00 48 1015.6
20260507140836 20 277 4.8 12.9 0.00 0.00 0.00 48 1015.7
20260507140336 20 302 4.8 14.5 0.00 0.00 0.00 48 1015.7
20260507135835 21 286 9.7 12.9 0.00 0.00 0.00 48 1015.9
20260507135336 21 290 4.8 11.3 0.00 0.00 0.00 48 1015.9
20260507134836 21 286 3.2 9.7 0.00 0.00 0.00 48 1015.9
20260507133836 21 304 4.8 14.5 0.00 0.00 0.00 47 1015.9
20260507133336 21 296 8.0 16.1 0.00 0.00 0.00 47 1015.9
20260507131336 21 296 8.0 16.1 0.00 0.00 0.00 47 1016.0
20260507130336 21 301 8.0 22.5 0.00 0.00 0.00 47 1016.1
20260507125836 21 294 6.4 14.5 0.00 0.00 0.00 47 1016.3
20260507124336 21 282 4.8 12.9 0.00 0.00 0.00 46 1016.6
20260507123836 21 310 9.7 16.1 0.00 0.00 0.00 46 1016.4
20260507123335 21 292 9.7 19.3 0.00 0.00 0.00 47 1016.5
20260507122335 21 156 8.0 16.1 0.00 0.00 0.00 47 1016.5
20260507121336 21 299 8.0 12.9 0.00 0.00 0.00 48 1016.5
20260507120836 21 310 4.8 11.3 0.00 0.00 0.00 48 1016.4
20260507115336 21 342 4.8 16.1 0.00 0.00 0.00 48 1016.6
20260507114836 21 331 8.0 12.9 0.00 0.00 0.00 48 1016.6
20260507113836 21 299 8.0 22.5 0.00 0.00 0.00 47 1016.5
20260507113336 21 290 9.7 14.5 0.00 0.00 0.00 47 1016.6
20260507111335 22 327 12.9 20.9 0.00 0.00 0.00 45 1016.5
20260507110837 22 311 9.7 16.1 0.00 0.00 0.00 45 1016.6
20260507105836 22 305 11.3 25.7 0.00 0.00 0.00 44 1016.7
20260507104836 23 289 4.8 8.0 0.00 0.00 0.00 44 1016.6
20260507103835 23 247 4.8 8.0 0.00 0.00 0.00 44 1016.6
20260507101836 23 258 4.8 9.7 0.00 0.00 0.00 45 1016.8
20260507100836 23 298 3.2 9.7 0.00 0.00 0.00 46 1016.7
20260507094336 22 291 4.8 11.3 0.00 0.00 0.00 47 1017.1
20260507091835 22 258 4.8 11.3 0.00 0.00 0.00 48 1017.1
20260507090836 22 217 3.2 9.7 0.00 0.00 0.00 50 1017.2
20260507085836 21 275 4.8 9.7 0.00 0.00 0.00 50 1017.2
20260507085335 21 145 3.2 9.7 0.00 0.00 0.00 50 1017.0
20260507084336 21 260 4.8 9.7 0.00 0.00 0.00 51 1017.1
20260507083836 21 172 3.2 8.0 0.00 0.00 0.00 53 1017.4
20260507082836 20 148 3.2 8.0 0.00 0.00 0.00 54 1017.3
20260507082335 20 151 4.8 8.0 0.00 0.00 0.00 55 1017.2
20260507081336 19 178 3.2 8.0 0.00 0.00 0.00 57 1017.2
20260507075836 18 162 1.6 3.2 0.00 0.00 0.00 57 1017.2
20260507075336 18 71 3.2 4.8 0.00 0.00 0.00 57 1017.1
20260507074336 18 45 3.2 8.0 0.00 0.00 0.00 58 1017.2
20260507073835 18 101 4.8 9.7 0.00 0.00 0.00 60 1017.3
20260507072836 17 13 1.6 4.8 0.00 0.00 0.00 61 1017.3
20260507072336 17 30 3.2 8.0 0.00 0.00 0.00 62 1017.4
20260507071336 16 281 1.6 3.2 0.00 0.00 0.00 63 1017.5
20260507070836 16 286 3.2 8.0 0.00 0.00 0.00 63 1017.4
20260507070336 16 281 4.8 8.0 0.00 0.00 0.00 63 1017.4
20260507065336 16 250 1.6 3.2 0.00 0.00 0.00 65 1017.5
20260507064836 15 249 0.0 3.2 0.00 0.00 0.00 65 1017.4
20260507063837 15 324 0.0 1.6 0.00 0.00 0.00 65 1017.3
20260507062836 15 312 1.6 3.2 0.00 0.00 0.00 65 1017.4
20260507061835 15 259 1.6 9.7 0.00 0.00 0.00 66 1017.4
20260507061336 15 218 3.2 8.0 0.00 0.00 0.00 66 1017.5
20260507060836 14 243 3.2 8.0 0.00 0.00 0.00 67 1017.5
20260507055335 13 125 1.6 8.0 0.00 0.00 0.00 69 1017.1
20260507054836 13 157 1.6 4.8 0.00 0.00 0.00 70 1017.3
20260507054336 12 147 3.2 8.0 0.00 0.00 0.00 70 1017.1
20260507053835 12 158 3.2 8.0 0.00 0.00 0.00 70 1017.1
20260507053336 12 162 3.2 8.0 0.00 0.00 0.00 70 1017.2
20260507052336 11 176 3.2 4.8 0.00 0.00 0.00 70 1017.3
20260507051836 11 177 1.6 3.2 0.00 0.00 0.00 70 1017.4
20260507044836 10 206 1.6 3.2 0.00 0.00 0.00 70 1017.0
20260507044336 9 181 1.6 4.8 0.00 0.00 0.00 70 1016.9
20260507043836 9 193 1.6 3.2 0.00 0.00 0.00 69 1016.8
20260507042836 9 9 0.0 0.0 0.00 0.00 0.00 68 1016.7
20260507040835 8 1 0.0 1.6 0.00 0.00 0.00 68 1016.8
20260507033336 8 330 1.6 1.6 0.00 0.00 0.00 68 1016.3
20260507032336 8 197 0.0 1.6 0.00 0.00 0.00 67 1016.2
20260507031836 8 221 1.6 4.8 0.00 0.00 0.00 67 1016.4
20260507030835 8 39 1.6 3.2 0.00 0.00 0.00 66 1016.3
20260507030335 8 29 1.6 1.6 0.00 0.00 0.00 66 1016.1
20260507025836 8 24 0.0 0.0 0.00 0.00 0.00 66 1015.9
20260507025335 8 28 0.0 1.6 0.00 0.00 0.00 66 1015.5
20260507024335 9 24 1.6 3.2 0.00 0.00 0.00 65 1015.7
20260507020836 9 14 1.6 3.2 0.00 0.00 0.00 64 1015.8
20260507020336 9 267 0.0 1.6 0.00 0.00 0.00 64 1015.6
20260507015836 10 250 0.0 1.6 0.00 0.00 0.00 64 1015.4
20260507014835 10 279 0.0 1.6 0.00 0.00 0.00 64 1015.3
20260507014336 10 309 0.0 1.6 0.00 0.00 0.00 64 1015.2